Alexandria, LA

12:08 AM CDT on September 01, 2016 (GMT -0500)
Alexandria International

Weather History for KAEX - February, 2012

Change the Weather History Date:

Saturday, February 11, 2012

  Actual Average Record
Temperature  
Mean Temperature 40 °F 51 °F  
Max Temperature 49 °F 62 °F 84 °F (1957)
Min Temperature 31 °F 40 °F 15 °F (1981)
Degree Days  
Heating Degree Days 25 14  
Month to date heating degree days 123 165  
Since 1 July heating degree days 1265 1456  
Moisture  
Dew Point 24 °F    
Average Humidity 60    
Maximum Humidity 93    
Minimum Humidity 26    
Precipitation  
Precipitation 0.00 in 0.15 in 2.60 in (1913)
Month to date precipitation 6.79 1.68  
Year to date precipitation 12.15 6.90  
Snow  
Snow 0.00 in - 0.00 in ()
Month to date snowfall 0.0  
Since 1 July snowfall 0.0  
Snow Depth 0.00 in    
Sea Level Pressure  
Sea Level Pressure 30.40 in    
Wind  
Wind Speed 12 mph (North)    
Max Wind Speed 20 mph    
Max Gust Speed 28 mph    
Visibility 9 miles    
Events      
T = Trace of Precipitation, MM = Missing Value Source: NWS Daily Summary

Daily Weather History Graph

Daily Weather History Graph

Search for Another Location

Airport or City:

Trip Planner

Search our weather history database for the weather conditions in past years. The results will help you decide how hot, cold, wet, or windy it might be!

Date:

Astronomy

Feb. 11, 2012 Rise Set
Actual Time 6:55 AM CST 5:53 PM CST
Civil Twilight 6:30 AM CST 6:18 PM CST
Nautical Twilight 6:02 AM CST 6:47 PM CST
Astronomical Twilight 5:33 AM CST 7:15 PM CST
Moon 10:18 PM CST (2/11) 8:59 AM CST (2/11)
Length of Visible Light 11h 48m
Length of Day
10h 58m
Waning Gibbous, 82% of the Moon is Illuminated
Feb 11
Waning Gibbous
Feb 14
Last Quarter
Feb 21
New
Feb 29
First Quarter
Mar 8
Full

Hourly Weather History & Observations

Time (CST) Temp. Windchill Dew Point Humidity Pressure Visibility Wind Dir Wind Speed Gust Speed Precip Events Conditions
12:53 AM 46.0 °F 40.6 °F 43.0 °F 89% 30.24 in 7.0 mi NNW 11.5 mph 17.3 mph N/A   Mostly Cloudy
1:12 AM 44.6 °F 38.4 °F 42.8 °F 93% 30.24 in 8.0 mi NNW 12.7 mph - N/A   Overcast
1:53 AM 43.0 °F 35.7 °F 37.9 °F 82% 30.26 in 8.0 mi NW 15.0 mph - N/A   Overcast
2:42 AM 41.0 °F 32.8 °F 35.6 °F 81% 30.25 in 8.0 mi NNW 16.1 mph 24.2 mph N/A   Overcast
2:53 AM 41.0 °F 33.1 °F 35.1 °F 79% 30.28 in 8.0 mi NW 15.0 mph 23.0 mph N/A   Overcast
3:53 AM 39.9 °F 32.9 °F 34.0 °F 79% 30.29 in 8.0 mi NW 11.5 mph - N/A   Overcast
4:51 AM 37.4 °F 28.5 °F 30.2 °F 75% 30.30 in 8.0 mi NNW 15.0 mph 23.0 mph N/A   Scattered Clouds
4:53 AM 37.9 °F 28.5 °F 30.0 °F 73% 30.32 in 9.0 mi North 17.3 mph 23.0 mph N/A   Scattered Clouds
5:53 AM 35.1 °F 28.6 °F 27.0 °F 72% 30.33 in 9.0 mi NNW 8.1 mph - N/A   Clear
6:53 AM 34.0 °F 25.5 °F 26.1 °F 73% 30.37 in 9.0 mi NNW 11.5 mph - N/A   Clear
7:53 AM 35.1 °F 26.9 °F 26.1 °F 70% 30.40 in 8.0 mi North 11.5 mph 18.4 mph N/A   Clear
8:53 AM 37.0 °F 27.7 °F 23.0 °F 57% 30.43 in 10.0 mi North 16.1 mph 23.0 mph N/A   Clear
9:53 AM 39.9 °F 31.4 °F 21.0 °F 47% 30.46 in 10.0 mi North 16.1 mph 20.7 mph N/A   Clear
10:53 AM 41.0 °F 32.5 °F 18.0 °F 40% 30.45 in 10.0 mi North 17.3 mph 24.2 mph N/A   Clear
11:53 AM 45.0 °F 38.9 °F 16.0 °F 31% 30.45 in 10.0 mi NNE 12.7 mph 23.0 mph N/A   Clear
12:53 PM 46.0 °F 39.3 °F 15.1 °F 29% 30.43 in 10.0 mi North 16.1 mph 24.2 mph N/A   Clear
1:53 PM 48.0 °F - 16.0 °F 28% 30.41 in 10.0 mi NNE 15.0 mph 20.7 mph N/A   Clear
2:53 PM 48.0 °F - 16.0 °F 28% 30.40 in 10.0 mi North 13.8 mph 19.6 mph N/A   Clear
3:53 PM 46.9 °F - 16.0 °F 29% 30.41 in 10.0 mi NNE 12.7 mph 18.4 mph N/A   Clear
4:53 PM 45.0 °F 39.3 °F 16.0 °F 31% 30.42 in 10.0 mi NNE 11.5 mph 19.6 mph N/A   Clear
5:53 PM 39.9 °F 32.9 °F 16.0 °F 38% 30.46 in 10.0 mi North 11.5 mph - N/A   Clear
6:53 PM 37.9 °F 32.1 °F 15.1 °F 39% 30.50 in 10.0 mi North 8.1 mph 18.4 mph N/A   Clear
7:53 PM 36.0 °F 29.6 °F 18.0 °F 48% 30.53 in 10.0 mi NE 8.1 mph - N/A   Clear
8:53 PM 34.0 °F 26.0 °F 18.0 °F 52% 30.56 in 10.0 mi NNE 10.4 mph 19.6 mph N/A   Clear
9:53 PM 32.0 °F 26.4 °F 18.0 °F 56% 30.58 in 10.0 mi NNE 5.8 mph - N/A   Clear
10:53 PM 30.9 °F 22.8 °F 17.1 °F 57% 30.59 in 10.0 mi NNE 9.2 mph - N/A   Clear
11:53 PM 30.9 °F 23.5 °F 16.0 °F 54% 30.60 in 10.0 mi NNE 8.1 mph - N/A   Clear